Tracking 35048 objects as of 19-Aug-2026
HD Live streaming from Space Station
objects crossing your sky now

PEGASUS DEB


PEGASUS DEB is no longer on orbit


NORAD ID: 24599
Int'l Code: 1994-029ZB
Launch date: May 19, 1994
Source: United States (US)
Launch site: AIR FORCE WESTERN TEST RANGE (AFWTR)
Decay date: 2002-08-03

Note: This is SATELLITE DEBRIS
Your satellite tracking list
Your tracking list is empty




NASA's NSSDC Master Catalog

Two Line Element Set (TLE):
1 24599U 94029ZB  02214.09730656 +.06785540 -11480-5 +24841-2 0  9994
2 24599 081.8845 088.1669 0018626 170.4614 345.7013 16.24210349329570
Source of the keplerian elements: AFSPC